STARLINK-1263, 45405

Orbit data source: Space-Track

STARLINK-1263, 45405 is a payload satellite owned by SpaceX/Seattle (US) in LEO that was launched on Wed, 18 Mar 2020 UTC via an FALCON 9 launch vehicle from the Air Force Eastern Test Range (AFETR). Payload-class satellites include a variety of spacecraft equipped with specific instruments for various scientific and technological missions. These include communications satellites like Starlink; space stations such as the ISS; scientific satellites like the Hubble; Earth observation satellites from companies like Planet Labs, Umbra, and HawkEye 360; GPS; miniature CubeSats for education and research; and military/defense satellites.

Loading next visibility...
Identifier
45405, 2020-019AX
Orbit
LEO
Last TLE update
1 day ago
Origin
Manufacturer
SpaceX/Seattle
Mission
Operational Commercial Communications
Bus & Motor
STARLINK, Unknown motor
Mass
260 kg wet, ~248 kg dry
Launch date (UTC)
2020-03-18 (5 years ago)
Launch vehicle
FALCON 9
Launch site
Air Force Eastern Test Range (AFETR)
Object type
Payload
Rocket body
Debris
Shape & HBR
Box + 1 Pan, 8.86 m
Radar Cross Section
13.562 m², Large (>1 m²)

Expand to show TLE details & history

TLE from 1 day ago
0 STARLINK-1263
1 45405U 20019AX  25128.24104176  .00000123  00000-0  27184-4 0  9995
2 45405  53.0554  67.8289 0001533 100.6821 259.4340 15.06394510283826
Epoch: 2025-05-08T05:47Z
Definitive object data (Epoch: 2025-05-08T05:47:06.008Z)
Latitude
-0.00005°
Longitude
114.73946°
Altitude
548.302 km
Speed
7.589 km/s
True Right ascension
04h 31m 18s
True Declination
0° 00' 00"
Sunlit
Object was in daylight at TLE epoch
Visualization TLE readout
Latitude
13.73849°
Longitude
-80.3999°
Altitude
546.812 km
Speed
7.591 km/s
Apparent Right ascension
17h 38m 26s
Apparent Declination
-46° 07' 07"
Sunlit
Object is in full shadow
Visualization observer readout
Local Sidereal Time
14:32:10
Azimuth
149.619° SSE
Elevation
-5.566°
Doppler factor
1
Orbital elements
Apogee altitude
548.561 km
Perigee altitude
546.437 km
Semi-major axis
6,925.636 km
Eccentricity
0.0001533
Inclination
53.0554°
RAAN
67.8289°
Arg. of periapsis
100.6821°
True anomaly
259.41673°
Mean anomaly
259.434°
Eccentric anomaly
259.42537°
Mean motion
3.76577 °/min
BSTAR
0.000027184
Orbital period
95.6 mins
Loading maneuver chart data...
Loading SW <> Apogee altitude chart data...
Loading historical data...
Loading historical data...
Loading historical data...
Loading historical data...
Loading historical data...
Loading historical data...
Loading historical data...

STARLINK-1263 Visibility forecast

Observer location: undefined°, undefined°

Span
Click to sort rows by Start time (UTC) header in descending order
Start Az.
Max El. time (UTC)
Max El. Az.
Max El.
End time (UTC)
End Az.
6 mins2025-05-09 21:45:20.542Z200.105° SSW2025-05-09 21:48:20.542Z133.678° SE34.065°2025-05-09 21:51:20.542Z67.243° ENE
6 mins2025-05-09 23:25:20.542Z275.84° WNW2025-05-09 23:28:20.542Z343.343° N27.249°2025-05-09 23:31:20.542Z33.382° NE
6 mins2025-05-10 04:27:20.542Z329.246° NNW2025-05-10 04:29:20.542Z14.398° NNE34.662°2025-05-10 04:33:20.542Z106.29° ESE
5 mins2025-05-10 06:07:20.542Z268.006° W2025-05-10 06:09:20.542Z223.755° SW23.347°2025-05-10 06:12:20.542Z174.727° S
|